Location: Rumah Dana
(3.1167°N, 113.0167°E)
Time: 13:22:47
(UTC+00:00)

Cosmos 1328 - Pass Details

Date: 03 August 2024
Orbit: 498 x 517 km, 82.5° (Epoch: 07 September)

Event Time Altitude Azimuth Distance (km) Brightness Sun altitude
Rises 21:54:11 0° 355° (N) 2,596 7.4 -8.6°
Reaches altitude 10° 21:56:17 10° 355° (N) 1,718 6.5 -8.1°
Maximum altitude 22:00:03 86° 265° (W) 517 3.6 -7.2°
Drops below altitude 10° 22:03:52 10° 177° (S) 1,740 6.2 -6.3°
Sets 22:06:00 0° 177° (S) 2,633 7.1 -5.8°
